Starlink 32150

operational
NORAD ID: 60294 Int'l Des: 2024-132 Owner: SPXS Country: US Constellation: starlink
LEOCIRCULAR

关于 Starlink 32150

正在加载描述...

实时位置

正在加载3D地球...

即将过境

高度历史

Altitude vs Time

uPlot chart will show altitude changes over time

两行轨道根数

1 60294U 24132S 25260.97160947 .00000090 00000-0 15156-4 0 9992
2 60294 53.1597 134.8927 0001318 79.0967 281.0182 15.30183828 65112
Epoch: Sep 17, 2025 • Age: 13 hours

当前状态

高度 475.3 km
速度 7.63 km/s
星下点 21.36°N, 27.92°W
发射日期 Jul 28, 2024
运行时间 1.1 years
类型 internet

技术详情

分类 Payload
质量 730.00 kg
干质量 700.00 kg
总质量 730.00 kg
长度 0.30 m
直径 4.10 m
跨度 29.00 m
形状 Box + pan
制造商 SPXS
平台类型 Starlink V2M
阶段状态 In Orbit
所有者/国家 SPXS/US

大型星座

Loading constellations...